ONEWEB-0701, 61607

Orbit data source: Space-Track

ONEWEB-0701, 61607 is a payload satellite owned by Eut. One Web (UK) in LEO that was launched on Sun, 20 Oct 2024 UTC via an FALCON 9 launch vehicle from the Air Force Western Test Range (AFWTR). Payload-class satellites include a variety of spacecraft equipped with specific instruments for various scientific and technological missions. These include communications satellites like Starlink; space stations such as the ISS; scientific satellites like the Hubble; Earth observation satellites from companies like Planet Labs, Umbra, and HawkEye 360; GPS; miniature CubeSats for education and research; and military/defense satellites.

Loading next visibility...
Identifier
61607, 2024-188P
Orbit
LEO
Country
Flag of UKUK
Related business
Manufacturer
One Web
Mission
Operational Commercial Communications
Bus & Motor
ARROW, Unknown motor
Mass
148 kg wet, ~140 kg dry
Launch date (UTC)
2024-10-20 (11 months ago)
Launch vehicle
FALCON 9
Launch site
Air Force Western Test Range (AFWTR)
Object type
Payload
Rocket body
Debris
Shape & HBR
Trap Box + 2 Pan, 2.5 m
Radar Cross Section
2.032 m², Large (>1 m²)

Expand to show TLE details & history
Last TLE update: 13 hours ago

TLE from 13 hours ago
0 ONEWEB-0701
1 61607U 24188P   25261.01927421 -.00000644  00000-0 -18804-2 0  9994
2 61607  87.8734  90.5328 0001468 118.3946 241.7330 13.10372446 47661
Epoch: 2025-09-18T00:27Z
TLE epoch observation values (Epoch: 2025-09-18T00:27:45.291Z)
Latitude
0.00002°
Longitude
86.40721°
Altitude
1,225.135 km
Speed
7.242 km/s
True Right ascension
06h 02m 07s
True Declination
0° 00' 00"
Sunlit
Object was in daylight at epoch
Visualization orbit readout
Latitude
Unknown
Longitude
Unknown
Altitude
Unknown
Speed
Unknown
Apparent Right ascension
Unknown
Apparent Declination
Unknown
Sunlit
N/A
Visualization observer readout
Local Sidereal Time
06:12:19
Azimuth
Unknown
Elevation
Unknown
Doppler factor
Unknown
Orbital elements
Apogee altitude
1,219.954 km
Perigee altitude
1,217.723 km
Semi-major axis
7,596.976 km
Eccentricity
0.00015
Inclination
87.8734°
RAAN
90.5328°
Arg. of periapsis
118.3946°
True anomaly
241.71819°
Mean anomaly
241.733°
Eccentric anomaly
241.72559°
Mean motion
3.2778 °/min
Orbital period
109.83 mins
BSTAR
-0.0018804
Loading maneuver chart data...
Computing Atmospheric mass density...
Loading historical data...
Loading historical data...
Loading historical data...
Loading historical data...
Loading historical data...
Loading historical data...
Loading historical data...

Documentation

Showing up to 5 results
|